Time,TemperatureF,DewpointF,PressureIn,WindDirection,WindDirectionDegrees,WindSpeedMPH,WindSpeedGustMPH,Humidity,HourlyPrecipIn,Conditions,Clouds,dailyrainin,SoftwareType,DateUTC
2013-02-10 00:00:00,37.5,35.9,29.97,SE,129,4.0,4.0,94,0.11,,-RA,0.00,VWS V14.00,2013-02-10 06:00:00,
2013-02-10 00:05:00,37.5,35.9,29.97,SSE,148,1.0,8.0,94,0.12,,-RA,0.01,VWS V14.00,2013-02-10 06:05:00,
2013-02-10 00:10:00,37.5,35.9,29.97,SSE,147,6.0,8.0,94,0.12,,-RA,0.01,VWS V14.00,2013-02-10 06:10:00,
2013-02-10 00:15:00,37.5,36.2,29.97,SSE,160,7.0,8.0,95,0.13,,-RA,0.02,VWS V14.00,2013-02-10 06:15:00,
2013-02-10 00:20:00,37.5,36.2,29.97,SSE,147,1.0,8.0,95,0.14,,-RA,0.03,VWS V14.00,2013-02-10 06:20:00,
2013-02-10 00:25:00,37.5,36.2,29.96,SE,143,2.0,8.0,95,0.14,,-RA,0.03,VWS V14.00,2013-02-10 06:25:00,
2013-02-10 00:30:00,37.6,36.3,29.96,SE,134,3.0,3.0,95,0.09,,-RA,0.04,VWS V14.00,2013-02-10 06:30:00,
2013-02-10 00:35:00,37.6,36.6,29.96,South,173,1.0,7.0,96,0.09,,-RA,0.04,VWS V14.00,2013-02-10 06:35:00,
2013-02-10 00:40:00,37.7,36.7,29.95,SSE,159,2.0,7.0,96,0.10,,-RA,0.05,VWS V14.00,2013-02-10 06:40:00,
2013-02-10 00:45:00,37.8,36.8,29.95,SE,141,1.0,7.0,96,0.10,,-RA,0.05,VWS V14.00,2013-02-10 06:45:00,
2013-02-10 00:50:00,37.9,36.9,29.94,SE,133,2.0,7.0,96,0.10,,-RA,0.05,VWS V14.00,2013-02-10 06:50:00,
2013-02-10 00:55:00,38.0,37.0,29.94,SSE,161,8.0,9.0,96,0.11,,-RA,0.06,VWS V14.00,2013-02-10 06:55:00,
2013-02-10 01:00:00,38.1,37.3,29.94,South,172,3.0,7.0,97,0.06,,-RA,0.06,VWS V14.00,2013-02-10 07:00:00,
2013-02-10 01:05:00,38.2,37.4,29.94,SSE,158,4.0,8.0,97,0.06,,-RA,0.06,VWS V14.00,2013-02-10 07:05:00,
2013-02-10 01:10:00,38.3,37.5,29.93,SSE,160,7.0,10.0,97,0.07,,-RA,0.07,VWS V14.00,2013-02-10 07:10:00,
2013-02-10 01:15:00,38.3,37.5,29.93,SSE,152,12.0,12.0,97,0.07,,-RA,0.07,VWS V14.00,2013-02-10 07:15:00,
2013-02-10 01:20:00,38.3,37.5,29.93,South,169,9.0,12.0,97,0.08,,-RA,0.08,VWS V14.00,2013-02-10 07:20:00,
2013-02-10 01:25:00,38.4,37.6,29.93,SSE,161,6.0,12.0,97,0.08,,-RA,0.08,VWS V14.00,2013-02-10 07:25:00,
2013-02-10 01:30:00,38.4,37.6,29.92,SSE,158,5.0,5.0,97,0.04,,-RA,0.08,VWS V14.00,2013-02-10 07:30:00,
2013-02-10 01:35:00,38.3,37.5,29.91,SE,144,9.0,12.0,97,0.04,,-RA,0.08,VWS V14.00,2013-02-10 07:35:00,
2013-02-10 01:40:00,38.3,37.5,29.91,South,174,9.0,12.0,97,0.05,,-RA,0.09,VWS V14.00,2013-02-10 07:40:00,
2013-02-10 01:45:00,38.3,37.5,29.91,SSE,165,5.0,12.0,97,0.05,,-RA,0.09,VWS V14.00,2013-02-10 07:45:00,
2013-02-10 01:50:00,38.2,37.4,29.91,SSE,163,4.0,12.0,97,0.06,,-RA,0.10,VWS V14.00,2013-02-10 07:50:00,
2013-02-10 01:55:00,38.2,37.4,29.91,South,183,1.0,12.0,97,0.06,,-RA,0.10,VWS V14.00,2013-02-10 07:55:00,
2013-02-10 02:00:00,38.2,37.4,29.90,SSE,166,6.0,6.0,97,0.05,,-RA,0.11,VWS V14.00,2013-02-10 08:00:00,
2013-02-10 02:05:00,38.2,37.4,29.90,South,172,7.0,9.0,97,0.05,,-RA,0.11,VWS V14.00,2013-02-10 08:05:00,
2013-02-10 02:10:00,38.3,37.5,29.90,SSW,192,5.0,9.0,97,0.05,,-RA,0.11,VWS V14.00,2013-02-10 08:10:00,
2013-02-10 02:15:00,38.3,37.5,29.90,South,184,4.0,9.0,97,0.05,,-RA,0.11,VWS V14.00,2013-02-10 08:15:00,
2013-02-10 02:20:00,38.3,37.5,29.90,SSE,159,4.0,10.0,97,0.05,,-RA,0.11,VWS V14.00,2013-02-10 08:20:00,
2013-02-10 02:25:00,38.4,37.6,29.90,SSE,166,5.0,10.0,97,0.05,,-RA,0.11,VWS V14.00,2013-02-10 08:25:00,
2013-02-10 02:30:00,38.4,37.6,29.89,South,169,5.0,5.0,97,0.03,,-RA,0.11,VWS V14.00,2013-02-10 08:30:00,
2013-02-10 02:35:00,38.5,37.7,29.89,SSE,164,4.0,7.0,97,0.03,,-RA,0.11,VWS V14.00,2013-02-10 08:35:00,
2013-02-10 02:40:00,38.5,37.7,29.88,South,176,10.0,11.0,97,0.03,,-RA,0.11,VWS V14.00,2013-02-10 08:40:00,
2013-02-10 02:45:00,38.6,37.8,29.88,SSE,162,5.0,11.0,97,0.03,,-RA,0.11,VWS V14.00,2013-02-10 08:45:00,
2013-02-10 02:50:00,38.7,37.9,29.88,SSE,159,5.0,14.0,97,0.03,,-RA,0.11,VWS V14.00,2013-02-10 08:50:00,
2013-02-10 02:55:00,38.7,37.9,29.88,SSE,166,3.0,14.0,97,0.03,,-RA,0.11,VWS V14.00,2013-02-10 08:55:00,
2013-02-10 03:00:00,38.7,37.7,29.88,South,171,3.0,4.0,96,0.00,,-RA,0.11,VWS V14.00,2013-02-10 09:00:00,
2013-02-10 03:05:00,38.8,38.0,29.88,South,170,3.0,5.0,97,0.00,,-RA,0.11,VWS V14.00,2013-02-10 09:05:00,
2013-02-10 03:10:00,38.9,37.9,29.88,South,172,3.0,5.0,96,0.00,,-RA,0.11,VWS V14.00,2013-02-10 09:10:00,
2013-02-10 03:15:00,38.9,37.9,29.87,SSE,147,4.0,6.0,96,0.00,,-RA,0.11,VWS V14.00,2013-02-10 09:15:00,
2013-02-10 03:20:00,39.0,38.0,29.88,South,173,5.0,8.0,96,0.00,,-RA,0.11,VWS V14.00,2013-02-10 09:20:00,
2013-02-10 03:25:00,39.2,38.2,29.87,SSE,153,0.0,8.0,96,0.00,,-RA,0.11,VWS V14.00,2013-02-10 09:25:00,
2013-02-10 03:30:00,39.3,38.3,29.86,SSE,156,6.0,6.0,96,0.00,,-RA,0.11,VWS V14.00,2013-02-10 09:30:00,
2013-02-10 03:35:00,39.4,38.4,29.86,SE,137,3.0,8.0,96,0.01,,-RA,0.12,VWS V14.00,2013-02-10 09:35:00,
2013-02-10 03:40:00,39.5,38.5,29.85,SSE,157,1.0,9.0,96,0.01,,-RA,0.12,VWS V14.00,2013-02-10 09:40:00,
2013-02-10 03:45:00,39.5,38.5,29.85,South,174,1.0,9.0,96,0.01,,-RA,0.12,VWS V14.00,2013-02-10 09:45:00,
2013-02-10 03:50:00,39.5,38.5,29.84,SSE,148,2.0,9.0,96,0.01,,-RA,0.12,VWS V14.00,2013-02-10 09:50:00,
2013-02-10 03:55:00,39.7,38.7,29.83,SE,141,5.0,11.0,96,0.01,,-RA,0.12,VWS V14.00,2013-02-10 09:55:00,
2013-02-10 04:00:00,39.7,38.7,29.83,SSE,158,3.0,5.0,96,0.01,,-RA,0.12,VWS V14.00,2013-02-10 10:00:00,
2013-02-10 04:05:00,39.8,38.8,29.83,SSE,152,4.0,10.0,96,0.01,,-RA,0.12,VWS V14.00,2013-02-10 10:05:00,
2013-02-10 04:10:00,39.8,38.8,29.82,SE,146,2.0,10.0,96,0.01,,-RA,0.12,VWS V14.00,2013-02-10 10:10:00,
2013-02-10 04:15:00,39.8,38.8,29.82,SSE,159,4.0,10.0,96,0.01,,-RA,0.12,VWS V14.00,2013-02-10 10:15:00,
2013-02-10 04:20:00,40.0,39.0,29.81,SSE,168,3.0,10.0,96,0.01,,-RA,0.12,VWS V14.00,2013-02-10 10:20:00,
2013-02-10 04:25:00,40.1,39.0,29.81,SSE,154,4.0,11.0,96,0.01,,-RA,0.12,VWS V14.00,2013-02-10 10:25:00,
2013-02-10 04:30:00,40.3,39.0,29.80,SSE,160,2.0,5.0,95,0.01,,-RA,0.12,VWS V14.00,2013-02-10 10:30:00,
2013-02-10 04:35:00,40.4,39.1,29.80,SSE,150,3.0,8.0,95,0.01,,-RA,0.12,VWS V14.00,2013-02-10 10:35:00,
2013-02-10 04:40:00,40.4,39.1,29.80,South,182,4.0,8.0,95,0.01,,-RA,0.12,VWS V14.00,2013-02-10 10:40:00,
2013-02-10 04:45:00,40.6,39.3,29.80,SSE,160,1.0,8.0,95,0.01,,-RA,0.12,VWS V14.00,2013-02-10 10:45:00,
2013-02-10 04:50:00,40.7,39.4,29.80,SSE,156,9.0,10.0,95,0.01,,-RA,0.12,VWS V14.00,2013-02-10 10:50:00,
2013-02-10 04:55:00,40.9,39.3,29.81,SSE,163,5.0,11.0,94,0.01,,-RA,0.12,VWS V14.00,2013-02-10 10:55:00,
2013-02-10 05:00:00,41.0,39.4,29.80,SE,137,4.0,4.0,94,0.00,,-RA,0.12,VWS V14.00,2013-02-10 11:00:00,
2013-02-10 05:05:00,41.1,39.5,29.80,SSE,148,8.0,12.0,94,0.00,,-RA,0.12,VWS V14.00,2013-02-10 11:05:00,
2013-02-10 05:10:00,41.2,39.6,29.80,SSE,154,9.0,12.0,94,0.00,,-RA,0.12,VWS V14.00,2013-02-10 11:10:00,
2013-02-10 05:15:00,41.3,39.4,29.79,SSE,155,8.0,14.0,93,0.00,,-RA,0.12,VWS V14.00,2013-02-10 11:15:00,
2013-02-10 05:20:00,41.5,39.6,29.79,SE,141,4.0,14.0,93,0.00,,-RA,0.12,VWS V14.00,2013-02-10 11:20:00,
2013-02-10 05:25:00,41.6,39.7,29.78,SSE,152,5.0,14.0,93,0.00,,-RA,0.12,VWS V14.00,2013-02-10 11:25:00,
2013-02-10 05:30:00,41.7,39.5,29.78,SSE,153,11.0,12.0,92,0.00,,-RA,0.12,VWS V14.00,2013-02-10 11:30:00,
2013-02-10 05:35:00,41.8,39.7,29.78,SE,144,8.0,15.0,92,0.00,,OVC055,0.12,VWS V14.00,2013-02-10 11:35:00,
2013-02-10 05:40:00,41.8,39.7,29.78,SSE,158,4.0,15.0,92,0.00,,OVC055,0.12,VWS V14.00,2013-02-10 11:40:00,
2013-02-10 05:45:00,42.0,39.6,29.78,South,172,8.0,15.0,91,0.00,,OVC055,0.12,VWS V14.00,2013-02-10 11:45:00,
2013-02-10 05:50:00,42.1,39.7,29.78,SSE,151,3.0,15.0,91,0.00,,OVC055,0.12,VWS V14.00,2013-02-10 11:50:00,
2013-02-10 05:55:00,42.1,39.7,29.78,SSE,161,6.0,15.0,91,0.00,,OVC055,0.12,VWS V14.00,2013-02-10 11:55:00,
2013-02-10 06:00:00,42.2,39.8,29.78,SSE,159,9.0,11.0,91,0.00,,OVC055,0.12,VWS V14.00,2013-02-10 12:00:00,
2013-02-10 06:05:00,42.3,39.9,29.79,SSE,156,4.0,12.0,91,0.00,,OVC055,0.12,VWS V14.00,2013-02-10 12:05:00,
2013-02-10 06:10:00,42.5,39.8,29.78,SSE,156,4.0,12.0,90,0.00,,OVC055,0.12,VWS V14.00,2013-02-10 12:10:00,
2013-02-10 06:15:00,42.6,39.9,29.78,SSE,160,8.0,12.0,90,0.00,,OVC055,0.12,VWS V14.00,2013-02-10 12:15:00,
2013-02-10 06:20:00,42.7,39.7,29.78,SSE,164,6.0,12.0,89,0.00,,OVC055,0.12,VWS V14.00,2013-02-10 12:20:00,
2013-02-10 06:25:00,42.9,39.9,29.77,South,171,10.0,14.0,89,0.00,,OVC055,0.12,VWS V14.00,2013-02-10 12:25:00,
2013-02-10 06:30:00,42.9,39.9,29.77,SSE,155,11.0,13.0,89,0.01,,OVC055,0.13,VWS V14.00,2013-02-10 12:30:00,
2013-02-10 06:35:00,43.0,40.0,29.77,South,174,6.0,16.0,89,0.01,,-RA,0.13,VWS V14.00,2013-02-10 12:35:00,
2013-02-10 06:40:00,42.8,40.1,29.76,SSE,157,4.0,19.0,90,0.02,,-RA,0.14,VWS V14.00,2013-02-10 12:40:00,
2013-02-10 06:45:00,42.7,40.3,29.77,SSE,152,9.0,19.0,91,0.02,,-RA,0.14,VWS V14.00,2013-02-10 12:45:00,
2013-02-10 06:50:00,42.6,40.2,29.76,SSE,152,5.0,19.0,91,0.02,,-RA,0.14,VWS V14.00,2013-02-10 12:50:00,
2013-02-10 06:55:00,42.5,40.3,29.76,SE,140,4.0,19.0,92,0.02,,-RA,0.14,VWS V14.00,2013-02-10 12:55:00,
2013-02-10 07:00:00,42.5,40.3,29.75,SSE,149,5.0,6.0,92,0.02,,-RA,0.14,VWS V14.00,2013-02-10 13:00:00,
2013-02-10 07:05:00,42.6,40.4,29.76,SE,124,10.0,15.0,92,0.02,,-RA,0.14,VWS V14.00,2013-02-10 13:05:00,
2013-02-10 07:10:00,42.6,40.4,29.75,SSE,164,5.0,15.0,92,0.02,,-RA,0.14,VWS V14.00,2013-02-10 13:10:00,
2013-02-10 07:15:00,42.7,40.8,29.75,SSE,150,5.0,15.0,93,0.02,,-RA,0.14,VWS V14.00,2013-02-10 13:15:00,
2013-02-10 07:20:00,42.9,41.0,29.75,SSE,159,4.0,15.0,93,0.02,,-RA,0.14,VWS V14.00,2013-02-10 13:20:00,
2013-02-10 07:25:00,42.9,41.0,29.75,South,171,10.0,15.0,93,0.02,,-RA,0.14,VWS V14.00,2013-02-10 13:25:00,
2013-02-10 07:30:00,43.1,40.9,29.76,South,171,5.0,6.0,92,0.01,,-RA,0.14,VWS V14.00,2013-02-10 13:30:00,
2013-02-10 07:35:00,43.2,41.0,29.76,South,177,5.0,10.0,92,0.01,,OVC046,0.14,VWS V14.00,2013-02-10 13:35:00,
2013-02-10 07:40:00,43.3,41.1,29.76,South,178,1.0,10.0,92,0.01,,OVC046,0.14,VWS V14.00,2013-02-10 13:40:00,
2013-02-10 07:45:00,43.5,41.3,29.76,SSE,159,6.0,10.0,92,0.01,,OVC046,0.14,VWS V14.00,2013-02-10 13:45:00,
2013-02-10 07:50:00,43.6,41.7,29.75,South,173,2.0,10.0,93,0.02,,OVC046,0.15,VWS V14.00,2013-02-10 13:50:00,
2013-02-10 07:55:00,43.6,41.7,29.76,SSE,168,3.0,10.0,93,0.02,,OVC046,0.15,VWS V14.00,2013-02-10 13:55:00,
2013-02-10 08:00:00,43.6,41.7,29.76,South,182,2.0,6.0,93,0.02,,OVC046,0.16,VWS V14.00,2013-02-10 14:00:00,
2013-02-10 08:05:00,43.6,41.7,29.75,South,177,3.0,6.0,93,0.02,,OVC035,0.16,VWS V14.00,2013-02-10 14:05:00,
2013-02-10 08:10:00,43.6,41.7,29.76,South,187,3.0,8.0,93,0.03,,OVC035,0.17,VWS V14.00,2013-02-10 14:10:00,
2013-02-10 08:15:00,43.7,41.8,29.79,South,186,2.0,8.0,93,0.04,,OVC035,0.18,VWS V14.00,2013-02-10 14:15:00,
2013-02-10 08:20:00,43.7,42.1,29.78,SSE,167,2.0,10.0,94,0.07,,OVC035,0.21,VWS V14.00,2013-02-10 14:20:00,
2013-02-10 08:25:00,43.7,42.1,29.78,SSE,167,3.0,10.0,94,0.08,,OVC035,0.22,VWS V14.00,2013-02-10 14:25:00,
2013-02-10 08:30:00,43.6,42.0,29.77,SSE,162,9.0,9.0,94,0.10,,OVC035,0.24,VWS V14.00,2013-02-10 14:30:00,
2013-02-10 08:35:00,43.6,42.3,29.76,SSE,152,7.0,11.0,95,0.12,,,0.26,VWS V14.00,2013-02-10 14:35:00,
2013-02-10 08:40:00,43.7,42.4,29.75,SSE,155,6.0,14.0,95,0.14,,,0.28,VWS V14.00,2013-02-10 14:40:00,
2013-02-10 08:45:00,43.7,42.6,29.74,SSE,161,6.0,14.0,96,0.17,,,0.31,VWS V14.00,2013-02-10 14:45:00,
2013-02-10 08:50:00,43.8,42.7,29.74,SSE,153,9.0,15.0,96,0.19,,,0.33,VWS V14.00,2013-02-10 14:50:00,
2013-02-10 08:55:00,43.8,42.7,29.73,SSE,155,17.0,17.0,96,0.21,,,0.35,VWS V14.00,2013-02-10 14:55:00,
2013-02-10 09:00:00,43.8,42.7,29.74,SSE,147,7.0,14.0,96,0.20,,,0.36,VWS V14.00,2013-02-10 15:00:00,
2013-02-10 09:05:00,43.7,42.9,29.74,SSE,166,7.0,14.0,97,0.21,,OVC085,0.37,VWS V14.00,2013-02-10 15:05:00,
2013-02-10 09:10:00,43.7,42.9,29.73,South,172,10.0,15.0,97,0.22,,OVC085,0.38,VWS V14.00,2013-02-10 15:10:00,
2013-02-10 09:15:00,43.7,42.9,29.72,SSE,158,17.0,17.0,97,0.23,,OVC085,0.39,VWS V14.00,2013-02-10 15:15:00,
2013-02-10 09:20:00,43.7,42.9,29.71,SE,145,5.0,17.0,97,0.24,,OVC085,0.40,VWS V14.00,2013-02-10 15:20:00,
2013-02-10 09:25:00,43.8,43.0,29.71,SSE,151,11.0,17.0,97,0.25,,OVC085,0.41,VWS V14.00,2013-02-10 15:25:00,
2013-02-10 09:30:00,44.0,43.5,29.71,SSE,164,13.0,13.0,98,0.18,,OVC085,0.42,VWS V14.00,2013-02-10 15:30:00,
2013-02-10 09:35:00,44.1,43.6,29.70,SSE,152,7.0,15.0,98,0.18,,OVC085,0.42,VWS V14.00,2013-02-10 15:35:00,
2013-02-10 09:40:00,44.2,43.7,29.71,SE,132,4.0,15.0,98,0.19,,OVC085,0.43,VWS V14.00,2013-02-10 15:40:00,
2013-02-10 09:45:00,44.4,43.9,29.71,South,173,3.0,15.0,98,0.19,,OVC085,0.43,VWS V14.00,2013-02-10 15:45:00,
2013-02-10 09:50:00,44.6,44.1,29.70,SSE,164,10.0,15.0,98,0.19,,OVC085,0.43,VWS V14.00,2013-02-10 15:50:00,
2013-02-10 09:55:00,45.0,44.5,29.69,SSE,159,9.0,17.0,98,0.20,,OVC085,0.44,VWS V14.00,2013-02-10 15:55:00,
2013-02-10 10:00:00,45.3,44.8,29.68,SSE,159,9.0,14.0,98,0.08,,OVC085,0.44,VWS V14.00,2013-02-10 16:00:00,
2013-02-10 10:05:00,45.5,45.0,29.68,SSE,162,9.0,21.0,98,0.08,,-RA,0.44,VWS V14.00,2013-02-10 16:05:00,
2013-02-10 10:10:00,45.7,45.2,29.67,SSE,152,21.0,21.0,98,0.09,,-RA,0.45,VWS V14.00,2013-02-10 16:10:00,
2013-02-10 10:15:00,45.8,45.3,29.67,SSE,165,15.0,22.0,98,0.09,,-RA,0.45,VWS V14.00,2013-02-10 16:15:00,
2013-02-10 10:20:00,46.0,45.5,29.67,SSE,150,6.0,22.0,98,0.10,,-RA,0.46,VWS V14.00,2013-02-10 16:20:00,
2013-02-10 10:25:00,46.2,45.9,29.66,SSE,154,8.0,22.0,99,0.10,,-RA,0.46,VWS V14.00,2013-02-10 16:25:00,
2013-02-10 10:30:00,46.4,46.1,29.66,SSE,157,9.0,14.0,99,0.04,,-RA,0.46,VWS V14.00,2013-02-10 16:30:00,
2013-02-10 10:35:00,46.6,46.3,29.66,SSE,155,12.0,16.0,99,0.04,,-RA,0.46,VWS V14.00,2013-02-10 16:35:00,
2013-02-10 10:40:00,46.7,46.4,29.65,SSE,160,9.0,18.0,99,0.04,,-RA,0.46,VWS V14.00,2013-02-10 16:40:00,
2013-02-10 10:45:00,46.9,46.6,29.65,SSE,152,11.0,20.0,99,0.04,,-RA,0.46,VWS V14.00,2013-02-10 16:45:00,
2013-02-10 10:50:00,47.0,46.7,29.65,SSE,158,10.0,20.0,99,0.04,,-RA,0.46,VWS V14.00,2013-02-10 16:50:00,
2013-02-10 10:55:00,47.1,46.8,29.64,SSE,152,11.0,20.0,99,0.04,,-RA,0.46,VWS V14.00,2013-02-10 16:55:00,
2013-02-10 11:00:00,47.4,47.1,29.65,SSE,150,8.0,17.0,99,0.02,,-RA,0.46,VWS V14.00,2013-02-10 17:00:00,
2013-02-10 11:05:00,47.7,47.2,29.64,SSE,151,8.0,18.0,98,0.02,,-RA,0.46,VWS V14.00,2013-02-10 17:05:00,
2013-02-10 11:10:00,47.9,47.4,29.64,SSE,167,6.0,24.0,98,0.02,,-RA,0.46,VWS V14.00,2013-02-10 17:10:00,
2013-02-10 11:15:00,48.2,47.4,29.65,SSE,164,13.0,25.0,97,0.02,,-RA,0.46,VWS V14.00,2013-02-10 17:15:00,
2013-02-10 11:20:00,48.2,47.4,29.64,SSE,160,14.0,25.0,97,0.02,,-RA,0.46,VWS V14.00,2013-02-10 17:20:00,
2013-02-10 11:25:00,48.1,47.0,29.64,SSE,159,8.0,25.0,96,0.02,,-RA,0.46,VWS V14.00,2013-02-10 17:25:00,
2013-02-10 11:30:00,48.1,47.0,29.64,SSE,160,11.0,12.0,96,0.00,,-RA,0.46,VWS V14.00,2013-02-10 17:30:00,
2013-02-10 11:35:00,48.2,47.1,29.63,South,176,12.0,22.0,96,0.00,,OVC150,0.46,VWS V14.00,2013-02-10 17:35:00,
2013-02-10 11:40:00,48.3,46.9,29.63,South,169,8.0,29.0,95,0.00,,OVC150,0.46,VWS V14.00,2013-02-10 17:40:00,
2013-02-10 11:45:00,48.4,46.8,29.62,SSE,162,15.0,29.0,94,0.00,,OVC150,0.46,VWS V14.00,2013-02-10 17:45:00,
2013-02-10 11:50:00,48.4,46.8,29.62,SSE,158,11.0,29.0,94,0.00,,OVC150,0.46,VWS V14.00,2013-02-10 17:50:00,
2013-02-10 11:55:00,48.4,46.8,29.61,SE,142,8.0,29.0,94,0.00,,OVC150,0.46,VWS V14.00,2013-02-10 17:55:00,
2013-02-10 12:00:00,48.5,46.9,29.61,SSE,160,9.0,13.0,94,0.00,,OVC150,0.46,VWS V14.00,2013-02-10 18:00:00,
2013-02-10 12:05:00,48.4,46.8,29.61,South,184,6.0,18.0,94,0.00,,OVC090,0.46,VWS V14.00,2013-02-10 18:05:00,
2013-02-10 12:10:00,48.5,46.9,29.61,SSE,159,10.0,18.0,94,0.00,,OVC090,0.46,VWS V14.00,2013-02-10 18:10:00,
2013-02-10 12:15:00,48.5,46.9,29.60,SSE,155,12.0,18.0,94,0.00,,OVC090,0.46,VWS V14.00,2013-02-10 18:15:00,
2013-02-10 12:20:00,48.6,47.0,29.60,South,173,11.0,19.0,94,0.00,,OVC090,0.46,VWS V14.00,2013-02-10 18:20:00,
2013-02-10 12:25:00,48.7,47.0,29.60,South,173,11.0,20.0,94,0.00,,OVC090,0.46,VWS V14.00,2013-02-10 18:25:00,
2013-02-10 12:30:00,48.7,47.0,29.58,SE,144,9.0,12.0,94,0.00,,OVC090,0.46,VWS V14.00,2013-02-10 18:30:00,
2013-02-10 12:35:00,48.8,47.2,29.58,South,172,7.0,21.0,94,0.00,,OVC013,0.46,VWS V14.00,2013-02-10 18:35:00,
2013-02-10 12:40:00,48.8,47.4,29.57,SSE,154,12.0,21.0,95,0.00,,OVC013,0.46,VWS V14.00,2013-02-10 18:40:00,
2013-02-10 12:45:00,48.9,47.5,29.55,SE,146,6.0,21.0,95,0.00,,OVC013,0.46,VWS V14.00,2013-02-10 18:45:00,
2013-02-10 12:50:00,48.9,47.5,29.56,South,182,9.0,21.0,95,0.00,,OVC013,0.46,VWS V14.00,2013-02-10 18:50:00,
2013-02-10 12:55:00,49.0,47.9,29.57,SSE,158,10.0,21.0,96,0.00,,OVC013,0.46,VWS V14.00,2013-02-10 18:55:00,
2013-02-10 13:00:00,49.1,47.7,29.56,SSE,162,5.0,7.0,95,0.00,,OVC013,0.46,VWS V14.00,2013-02-10 19:00:00,
2013-02-10 13:05:00,49.1,47.7,29.55,South,171,12.0,16.0,95,0.00,,OVC013,0.46,VWS V14.00,2013-02-10 19:05:00,
2013-02-10 13:10:00,49.2,47.8,29.56,SSE,158,9.0,16.0,95,0.00,,OVC013,0.46,VWS V14.00,2013-02-10 19:10:00,
2013-02-10 13:15:00,49.3,48.2,29.56,South,187,8.0,16.0,96,0.00,,OVC013,0.46,VWS V14.00,2013-02-10 19:15:00,
2013-02-10 13:20:00,49.5,48.4,29.56,SSW,192,7.0,19.0,96,0.00,,OVC013,0.46,VWS V14.00,2013-02-10 19:20:00,
2013-02-10 13:25:00,49.7,48.3,29.57,SSW,195,5.0,19.0,95,0.00,,OVC013,0.46,VWS V14.00,2013-02-10 19:25:00,
2013-02-10 13:30:00,49.8,48.4,29.57,South,170,8.0,11.0,95,0.00,,OVC013,0.46,VWS V14.00,2013-02-10 19:30:00,
2013-02-10 13:35:00,50.0,48.6,29.57,South,174,6.0,15.0,95,0.00,,OVC009,0.46,VWS V14.00,2013-02-10 19:35:00,
2013-02-10 13:40:00,50.0,48.6,29.57,South,169,2.0,15.0,95,0.00,,OVC009,0.46,VWS V14.00,2013-02-10 19:40:00,
2013-02-10 13:45:00,50.1,48.7,29.56,South,171,4.0,15.0,95,0.00,,OVC009,0.46,VWS V14.00,2013-02-10 19:45:00,
2013-02-10 13:50:00,50.1,49.0,29.56,South,172,8.0,15.0,96,0.00,,OVC009,0.46,VWS V14.00,2013-02-10 19:50:00,
2013-02-10 13:55:00,50.1,49.0,29.57,South,170,6.0,15.0,96,0.00,,OVC009,0.46,VWS V14.00,2013-02-10 19:55:00,
2013-02-10 14:00:00,50.2,49.1,29.56,SSE,160,2.0,9.0,96,0.00,,OVC009,0.46,VWS V14.00,2013-02-10 20:00:00,
2013-02-10 14:05:00,50.3,49.5,29.56,SSE,155,10.0,11.0,97,0.00,,OVC009,0.46,VWS V14.00,2013-02-10 20:05:00,
2013-02-10 14:10:00,50.4,49.6,29.56,South,182,5.0,11.0,97,0.00,,OVC009,0.46,VWS V14.00,2013-02-10 20:10:00,
2013-02-10 14:15:00,50.4,49.6,29.55,SSE,156,3.0,11.0,97,0.01,,OVC009,0.47,VWS V14.00,2013-02-10 20:15:00,
2013-02-10 14:20:00,50.5,49.7,29.55,SSE,150,3.0,11.0,97,0.01,,OVC009,0.47,VWS V14.00,2013-02-10 20:20:00,
2013-02-10 14:26:00,50.8,50.3,29.55,SSE,151,8.0,11.0,98,0.01,,OVC009,0.47,VWS V14.00,2013-02-10 20:26:00,
2013-02-10 14:31:00,51.0,50.2,29.55,SSE,163,5.0,6.0,97,0.01,,OVC009,0.47,VWS V14.00,2013-02-10 20:31:00,
2013-02-10 14:36:00,51.1,50.6,29.55,SSE,160,4.0,9.0,98,0.01,,OVC009,0.47,VWS V14.00,2013-02-10 20:36:00,
2013-02-10 14:41:00,51.2,50.7,29.55,South,173,8.0,9.0,98,0.01,,OVC009,0.47,VWS V14.00,2013-02-10 20:41:00,
2013-02-10 14:46:00,51.4,50.9,29.55,SSE,163,7.0,13.0,98,0.01,,OVC009,0.47,VWS V14.00,2013-02-10 20:46:00,
2013-02-10 14:51:00,51.7,51.4,29.55,SSE,164,9.0,15.0,99,0.01,,OVC009,0.47,VWS V14.00,2013-02-10 20:51:00,
2013-02-10 14:56:00,52.1,51.8,29.55,SSE,167,10.0,15.0,99,0.01,,OVC009,0.47,VWS V14.00,2013-02-10 20:56:00,
2013-02-10 15:01:00,52.3,52.0,29.55,SSE,153,4.0,8.0,99,0.01,,OVC009,0.47,VWS V14.00,2013-02-10 21:01:00,
2013-02-10 15:06:00,52.5,52.2,29.55,South,171,11.0,11.0,99,0.01,,,0.47,VWS V14.00,2013-02-10 21:06:00,
2013-02-10 15:11:00,52.7,52.4,29.55,SSE,157,3.0,12.0,99,0.01,,,0.47,VWS V14.00,2013-02-10 21:11:00,
2013-02-10 15:16:00,52.9,52.9,29.55,SSE,159,8.0,12.0,100,0.01,,,0.47,VWS V14.00,2013-02-10 21:16:00,
2013-02-10 15:21:00,53.0,53.0,29.56,SSE,148,10.0,12.0,100,0.01,,,0.47,VWS V14.00,2013-02-10 21:21:00,
2013-02-10 15:26:00,53.1,53.1,29.56,SSW,192,2.0,12.0,100,0.01,,,0.47,VWS V14.00,2013-02-10 21:26:00,
2013-02-10 15:31:00,53.1,53.1,29.55,SSW,193,3.0,6.0,100,0.00,,,0.47,VWS V14.00,2013-02-10 21:31:00,
2013-02-10 15:36:00,53.2,53.2,29.56,South,183,6.0,13.0,100,0.00,,OVC016,0.47,VWS V14.00,2013-02-10 21:36:00,
2013-02-10 15:41:00,53.3,53.3,29.55,SSE,166,6.0,13.0,100,0.00,,OVC016,0.47,VWS V14.00,2013-02-10 21:41:00,
2013-02-10 15:46:00,53.4,53.4,29.56,South,184,3.0,14.0,100,0.00,,OVC016,0.47,VWS V14.00,2013-02-10 21:46:00,
2013-02-10 15:51:00,53.4,53.4,29.56,SSE,162,7.0,14.0,100,0.00,,OVC016,0.47,VWS V14.00,2013-02-10 21:51:00,
2013-02-10 15:56:00,53.6,53.6,29.56,South,173,7.0,14.0,100,0.00,,OVC016,0.47,VWS V14.00,2013-02-10 21:56:00,
2013-02-10 16:01:00,53.7,53.7,29.56,SSE,147,7.0,10.0,100,0.00,,OVC016,0.47,VWS V14.00,2013-02-10 22:01:00,
2013-02-10 16:06:00,53.9,53.9,29.56,SE,144,10.0,13.0,100,0.00,,OVC016,0.47,VWS V14.00,2013-02-10 22:06:00,
2013-02-10 16:11:00,54.1,53.8,29.56,South,183,3.0,18.0,99,0.00,,OVC016,0.47,VWS V14.00,2013-02-10 22:11:00,
2013-02-10 16:16:00,54.2,53.9,29.56,SSE,158,7.0,20.0,99,0.00,,OVC016,0.47,VWS V14.00,2013-02-10 22:16:00,
2013-02-10 16:21:00,54.3,53.8,29.56,SSW,196,6.0,20.0,98,0.00,,OVC016,0.47,VWS V14.00,2013-02-10 22:21:00,
2013-02-10 16:26:00,54.5,54.0,29.56,South,186,7.0,20.0,98,0.00,,OVC016,0.47,VWS V14.00,2013-02-10 22:26:00,
2013-02-10 16:31:00,54.7,53.9,29.56,South,175,6.0,14.0,97,0.00,,OVC016,0.47,VWS V14.00,2013-02-10 22:31:00,
2013-02-10 16:36:00,54.8,54.0,29.56,SSE,165,9.0,14.0,97,0.00,,OVC016,0.47,VWS V14.00,2013-02-10 22:36:00,
2013-02-10 16:41:00,54.9,54.1,29.56,SSE,153,6.0,16.0,97,0.00,,OVC016,0.47,VWS V14.00,2013-02-10 22:41:00,
2013-02-10 16:46:00,55.0,54.2,29.56,South,178,9.0,16.0,97,0.00,,OVC016,0.47,VWS V14.00,2013-02-10 22:46:00,
2013-02-10 16:51:00,55.0,54.2,29.56,South,190,5.0,16.0,97,0.00,,OVC016,0.47,VWS V14.00,2013-02-10 22:51:00,
2013-02-10 16:56:00,55.0,53.9,29.56,SSW,198,6.0,16.0,96,0.00,,OVC016,0.47,VWS V14.00,2013-02-10 22:56:00,
2013-02-10 17:01:00,55.0,54.2,29.56,SSE,163,10.0,10.0,97,0.00,,OVC016,0.47,VWS V14.00,2013-02-10 23:01:00,
2013-02-10 17:06:00,55.0,53.9,29.57,South,179,8.0,13.0,96,0.00,,OVC016,0.47,VWS V14.00,2013-02-10 23:06:00,
2013-02-10 17:11:00,55.1,54.0,29.56,SSE,155,6.0,13.0,96,0.00,,OVC016,0.47,VWS V14.00,2013-02-10 23:11:00,
2013-02-10 17:16:00,55.1,54.0,29.57,South,172,12.0,16.0,96,0.00,,OVC016,0.47,VWS V14.00,2013-02-10 23:16:00,
2013-02-10 17:21:00,55.1,54.0,29.57,SSE,157,8.0,16.0,96,0.00,,OVC016,0.47,VWS V14.00,2013-02-10 23:21:00,
2013-02-10 17:26:00,55.2,53.8,29.57,SSE,159,6.0,16.0,95,0.00,,OVC016,0.47,VWS V14.00,2013-02-10 23:26:00,
2013-02-10 17:31:00,55.1,53.7,29.58,SSE,162,5.0,10.0,95,0.00,,SCT150,0.47,VWS V14.00,2013-02-10 23:31:00,
2013-02-10 17:36:00,55.0,53.6,29.58,South,179,8.0,12.0,95,0.00,,SCT150,0.47,VWS V14.00,2013-02-10 23:36:00,
2013-02-10 17:41:00,54.9,53.5,29.57,South,179,7.0,12.0,95,0.00,,SCT150,0.47,VWS V14.00,2013-02-10 23:41:00,
2013-02-10 17:46:00,54.9,53.5,29.58,South,174,4.0,12.0,95,0.00,,SCT150,0.47,VWS V14.00,2013-02-10 23:46:00,
2013-02-10 17:51:00,54.9,53.5,29.59,South,172,8.0,13.0,95,0.00,,SCT150,0.47,VWS V14.00,2013-02-10 23:51:00,
2013-02-10 17:56:00,54.9,53.5,29.59,SSE,163,5.0,13.0,95,0.00,,SCT150,0.47,VWS V14.00,2013-02-10 23:56:00,
2013-02-10 18:01:00,54.9,53.5,29.59,South,178,13.0,13.0,95,0.00,,SCT150,0.47,VWS V14.00,2013-02-11 00:01:00,
2013-02-10 18:06:00,55.0,53.6,29.59,SSW,194,4.0,13.0,95,0.00,,SCT150,0.47,VWS V14.00,2013-02-11 00:06:00,
2013-02-10 18:11:00,55.0,53.6,29.59,SSE,152,1.0,13.0,95,0.00,,SCT150,0.47,VWS V14.00,2013-02-11 00:11:00,
2013-02-10 18:16:00,54.9,53.5,29.59,SSW,198,8.0,13.0,95,0.00,,SCT150,0.47,VWS V14.00,2013-02-11 00:16:00,
2013-02-10 18:21:00,55.0,53.6,29.59,South,171,4.0,13.0,95,0.00,,SCT150,0.47,VWS V14.00,2013-02-11 00:21:00,
2013-02-10 18:26:00,54.9,53.5,29.60,South,173,5.0,13.0,95,0.00,,SCT150,0.47,VWS V14.00,2013-02-11 00:26:00,
2013-02-10 18:31:00,54.8,53.7,29.60,SSW,194,3.0,8.0,96,0.00,,SCT150,0.47,VWS V14.00,2013-02-11 00:31:00,
2013-02-10 18:36:00,54.6,53.2,29.60,SSE,160,3.0,8.0,95,0.00,,SCT150,0.47,VWS V14.00,2013-02-11 00:36:00,
2013-02-10 18:41:00,54.5,53.4,29.60,South,180,2.0,9.0,96,0.00,,SCT150,0.47,VWS V14.00,2013-02-11 00:41:00,
2013-02-10 18:46:00,54.3,52.9,29.61,South,182,3.0,9.0,95,0.00,,SCT150,0.47,VWS V14.00,2013-02-11 00:46:00,
2013-02-10 18:51:00,54.2,52.8,29.60,South,182,3.0,9.0,95,0.00,,SCT150,0.47,VWS V14.00,2013-02-11 00:51:00,
2013-02-10 18:56:00,53.9,52.8,29.60,South,182,0.0,9.0,96,0.00,,SCT150,0.47,VWS V14.00,2013-02-11 00:56:00,
2013-02-10 19:01:00,53.7,52.6,29.60,South,182,1.0,3.0,96,0.00,,SCT150,0.47,VWS V14.00,2013-02-11 01:01:00,
2013-02-10 19:06:00,53.5,52.4,29.61,South,182,3.0,4.0,96,0.00,,SCT150,0.47,VWS V14.00,2013-02-11 01:06:00,
2013-02-10 19:11:00,53.3,52.2,29.61,South,182,0.0,4.0,96,0.00,,SCT150,0.47,VWS V14.00,2013-02-11 01:11:00,
2013-02-10 19:16:00,53.2,52.1,29.61,South,182,0.0,4.0,96,0.00,,SCT150,0.47,VWS V14.00,2013-02-11 01:16:00,
2013-02-10 19:21:00,53.0,51.9,29.61,South,182,1.0,4.0,96,0.00,,SCT150,0.47,VWS V14.00,2013-02-11 01:21:00,
2013-02-10 19:26:00,52.8,51.7,29.61,South,182,0.0,4.0,96,0.00,,SCT150,0.47,VWS V14.00,2013-02-11 01:26:00,
2013-02-10 19:31:00,52.6,51.5,29.61,South,182,0.0,2.0,96,0.00,,SCT150,0.47,VWS V14.00,2013-02-11 01:31:00,
2013-02-10 19:36:00,52.2,51.1,29.62,South,184,0.0,4.0,96,0.00,,SCT150,0.47,VWS V14.00,2013-02-11 01:36:00,
2013-02-10 19:41:00,51.6,50.2,29.62,SSW,209,3.0,7.0,95,0.00,,SCT150,0.47,VWS V14.00,2013-02-11 01:41:00,
2013-02-10 19:46:00,51.5,49.5,29.62,SW,223,1.0,7.0,93,0.00,,SCT150,0.47,VWS V14.00,2013-02-11 01:46:00,
2013-02-10 19:51:00,52.2,48.2,29.62,SW,226,7.0,11.0,86,0.00,,SCT150,0.47,VWS V14.00,2013-02-11 01:51:00,
2013-02-10 19:56:00,53.9,46.5,29.62,WSW,249,2.0,11.0,76,0.00,,SCT150,0.47,VWS V14.00,2013-02-11 01:56:00,
2013-02-10 20:01:00,54.9,44.9,29.62,West,273,1.0,2.0,69,0.00,,FEW025,0.47,VWS V14.00,2013-02-11 02:01:00,
2013-02-10 20:06:00,55.5,43.1,29.63,WSW,248,0.0,7.0,63,0.00,,FEW025,0.47,VWS V14.00,2013-02-11 02:06:00,
2013-02-10 20:11:00,55.8,42.1,29.64,South,178,8.0,14.0,60,0.00,,FEW025,0.47,VWS V14.00,2013-02-11 02:11:00,
2013-02-10 20:16:00,55.9,40.5,29.64,SSW,199,10.0,14.0,56,0.00,,FEW025,0.47,VWS V14.00,2013-02-11 02:16:00,
2013-02-10 20:21:00,55.9,39.5,29.65,South,181,1.0,14.0,54,0.00,,FEW025,0.47,VWS V14.00,2013-02-11 02:21:00,
2013-02-10 20:26:00,55.7,38.8,29.64,WSW,247,4.0,14.0,53,0.00,,FEW025,0.47,VWS V14.00,2013-02-11 02:26:00,
2013-02-10 20:31:00,55.6,38.8,29.64,WSW,254,1.0,8.0,53,0.00,,FEW025,0.47,VWS V14.00,2013-02-11 02:31:00,
2013-02-10 20:36:00,55.5,38.2,29.64,WSW,252,1.0,10.0,52,0.00,,FEW025,0.47,VWS V14.00,2013-02-11 02:36:00,
2013-02-10 20:41:00,55.3,38.0,29.65,WSW,239,3.0,10.0,52,0.00,,FEW025,0.47,VWS V14.00,2013-02-11 02:41:00,
2013-02-10 20:46:00,55.3,38.0,29.65,SW,219,3.0,10.0,52,0.00,,FEW025,0.47,VWS V14.00,2013-02-11 02:46:00,
2013-02-10 20:51:00,55.3,37.5,29.65,WSW,242,6.0,10.0,51,0.00,,FEW025,0.47,VWS V14.00,2013-02-11 02:51:00,
2013-02-10 20:56:00,55.2,37.4,29.65,WSW,246,2.0,10.0,51,0.00,,FEW025,0.47,VWS V14.00,2013-02-11 02:56:00,
2013-02-10 21:01:00,55.1,37.3,29.65,SW,229,0.0,3.0,51,0.00,,FEW025,0.47,VWS V14.00,2013-02-11 03:01:00,
2013-02-10 21:06:00,54.8,37.5,29.65,SW,225,3.0,6.0,52,0.00,,FEW025,0.47,VWS V14.00,2013-02-11 03:06:00,
2013-02-10 21:11:00,54.4,37.2,29.65,WSW,243,0.0,6.0,52,0.00,,FEW025,0.47,VWS V14.00,2013-02-11 03:11:00,
2013-02-10 21:16:00,54.2,37.0,29.65,WSW,254,2.0,6.0,52,0.00,,FEW025,0.47,VWS V14.00,2013-02-11 03:16:00,
2013-02-10 21:21:00,54.0,37.3,29.65,West,260,2.0,6.0,53,0.00,,FEW025,0.47,VWS V14.00,2013-02-11 03:21:00,
2013-02-10 21:26:00,53.7,37.0,29.65,SW,232,3.0,6.0,53,0.00,,FEW025,0.47,VWS V14.00,2013-02-11 03:26:00,
2013-02-10 21:31:00,53.6,36.9,29.65,West,269,0.0,4.0,53,0.00,,FEW025,0.47,VWS V14.00,2013-02-11 03:31:00,
2013-02-10 21:36:00,53.6,36.4,29.66,WSW,246,1.0,11.0,52,0.00,,FEW025,0.47,VWS V14.00,2013-02-11 03:36:00,
2013-02-10 21:41:00,53.7,36.5,29.66,WNW,285,0.0,11.0,52,0.00,,FEW025,0.47,VWS V14.00,2013-02-11 03:41:00,
2013-02-10 21:46:00,53.8,36.6,29.66,West,260,3.0,11.0,52,0.00,,FEW025,0.47,VWS V14.00,2013-02-11 03:46:00,
2013-02-10 21:51:00,53.8,36.6,29.66,SSW,201,1.0,11.0,52,0.00,,FEW025,0.47,VWS V14.00,2013-02-11 03:51:00,
2013-02-10 21:56:00,53.6,36.4,29.66,WSW,238,2.0,11.0,52,0.00,,FEW025,0.47,VWS V14.00,2013-02-11 03:56:00,
2013-02-10 22:01:00,53.4,36.2,29.66,West,272,1.0,6.0,52,0.00,,FEW025,0.47,VWS V14.00,2013-02-11 04:01:00,
2013-02-10 22:06:00,53.2,36.0,29.66,West,274,6.0,8.0,52,0.00,,FEW025,0.47,VWS V14.00,2013-02-11 04:06:00,
2013-02-10 22:11:00,53.1,36.0,29.66,SW,224,1.0,8.0,52,0.00,,FEW025,0.47,VWS V14.00,2013-02-11 04:11:00,
2013-02-10 22:16:00,53.0,35.9,29.66,WSW,252,5.0,10.0,52,0.00,,FEW025,0.47,VWS V14.00,2013-02-11 04:16:00,
2013-02-10 22:21:00,53.1,35.5,29.66,SW,230,12.0,17.0,51,0.00,,FEW025,0.47,VWS V14.00,2013-02-11 04:21:00,
2013-02-10 22:26:00,53.2,35.6,29.67,West,262,6.0,17.0,51,0.00,,FEW025,0.47,VWS V14.00,2013-02-11 04:26:00,
2013-02-10 22:31:00,53.2,35.6,29.66,West,263,4.0,6.0,51,0.00,,FEW025,0.47,VWS V14.00,2013-02-11 04:31:00,
2013-02-10 22:36:00,53.1,35.5,29.67,West,272,0.0,13.0,51,0.00,,CLR,0.47,VWS V14.00,2013-02-11 04:36:00,
2013-02-10 22:41:00,52.8,35.2,29.67,SW,230,1.0,13.0,51,0.00,,CLR,0.47,VWS V14.00,2013-02-11 04:41:00,
2013-02-10 22:46:00,52.7,35.1,29.67,SW,215,4.0,13.0,51,0.00,,CLR,0.47,VWS V14.00,2013-02-11 04:46:00,
2013-02-10 22:51:00,52.3,35.2,29.68,SW,225,4.0,13.0,52,0.00,,CLR,0.47,VWS V14.00,2013-02-11 04:51:00,
2013-02-10 22:56:00,52.2,35.1,29.68,West,266,2.0,13.0,52,0.00,,CLR,0.47,VWS V14.00,2013-02-11 04:56:00,
2013-02-10 23:00:00,52.2,35.1,29.68,West,279,10.0,13.0,52,0.00,,CLR,0.47,VWS V14.00,2013-02-11 05:00:00,
2013-02-10 23:05:00,52.1,35.0,29.69,SW,221,12.0,14.0,52,0.00,,CLR,0.47,VWS V14.00,2013-02-11 05:05:00,
2013-02-10 23:10:00,52.0,34.9,29.69,West,265,13.0,18.0,52,0.00,,CLR,0.47,VWS V14.00,2013-02-11 05:10:00,
2013-02-10 23:15:00,51.8,35.2,29.69,West,272,7.0,18.0,53,0.00,,CLR,0.47,VWS V14.00,2013-02-11 05:15:00,
2013-02-10 23:20:00,51.5,35.0,29.69,WSW,252,8.0,18.0,53,0.00,,CLR,0.47,VWS V14.00,2013-02-11 05:20:00,
2013-02-10 23:25:00,51.3,34.8,29.69,West,276,12.0,18.0,53,0.00,,CLR,0.47,VWS V14.00,2013-02-11 05:25:00,
2013-02-10 23:30:00,51.2,34.7,29.69,West,279,6.0,6.0,53,0.00,,CLR,0.47,VWS V14.00,2013-02-11 05:30:00,
2013-02-10 23:35:00,51.0,35.0,29.70,WSW,237,5.0,12.0,54,0.00,,CLR,0.47,VWS V14.00,2013-02-11 05:35:00,
2013-02-10 23:40:00,50.7,35.1,29.70,WNW,300,7.0,12.0,55,0.00,,CLR,0.47,VWS V14.00,2013-02-11 05:40:00,
2013-02-10 23:45:00,50.3,34.8,29.71,WNW,293,9.0,12.0,55,0.00,,CLR,0.47,VWS V14.00,2013-02-11 05:45:00,
2013-02-10 23:50:00,50.1,35.0,29.71,West,281,9.0,16.0,56,0.00,,CLR,0.47,VWS V14.00,2013-02-11 05:50:00,
2013-02-10 23:55:00,49.9,34.8,29.72,WNW,290,7.0,16.0,56,0.00,,CLR,0.47,VWS V14.00,2013-02-11 05:55:00,